Overview Statistics Trail Chart Weather Telemetry Raw packets
 

This is the latest recevied weather packets stored in our database for station/object K6CEG. If no packets are shown the sender has not sent any weather packets the latest 10 day(s).

<< 29 30 31 32 33 34 35 >>
Time Temp. Humidity Pressure Rain* Wind** Luminosity Snow
1788483390 25.56° C 54% 1013.2 hPa 0 mm - 24 W/m² -
1788483085 25.56° C 54% 1013.2 hPa 0 mm - 25 W/m² -
1788482780 25.56° C 54% 1013.3 hPa 0 mm - 28 W/m² -
1788482480 25.56° C 54% 1013.4 hPa 0 mm - 27 W/m² -
1788482176 25.56° C 53% 1013.2 hPa 0 mm - 28 W/m² -
1788481872 25.56° C 54% 1013.3 hPa 0 mm - 29 W/m² -
1788481568 26.11° C 53% 1013.2 hPa 0 mm - 29 W/m² -
1788481262 26.11° C 53% 1013.3 hPa 0 mm - 35 W/m² -
1788480957 26.67° C 52% 1013.5 hPa 0 mm - 38 W/m² -
1788480656 26.67° C 52% 1013.5 hPa 0 mm - 186 W/m² -
1788480351 26.67° C 51% 1013.5 hPa 0 mm - 245 W/m² -
1788480048 26.67° C 51% 1013.4 hPa 0 mm - 307 W/m² -
1788479747 27.22° C 50% 1013.4 hPa 0 mm - 111 W/m² -
1788479443 27.78° C 49% 1013.4 hPa 0 mm - 303 W/m² -
1788479138 27.78° C 48% 1013.3 hPa 0 mm - 43 W/m² -
1788478834 27.78° C 49% 1013.4 hPa 0 mm - 36 W/m² -
1788478529 27.78° C 49% 1013.4 hPa 0 mm - 36 W/m² -
1788478225 27.22° C 50% 1013.6 hPa 0 mm - 51 W/m² -
1788477921 27.22° C 51% 1013.6 hPa 0 mm - 36 W/m² -
1788477621 27.22° C 49% 1013.7 hPa 0 mm - 38 W/m² -
1788477315 27.22° C 50% 1013.6 hPa 0 mm - 38 W/m² -
1788477009 27.78° C 49% 1013.6 hPa 0 mm - 39 W/m² -
1788476706 27.78° C 50% 1013.6 hPa 0 mm - 39 W/m² -
1788476403 27.78° C 50% 1013.7 hPa 0 mm - 40 W/m² -
1788476097 27.22° C 49% 1013.9 hPa 0 mm - 42 W/m² -

* Rain latest hour (hover to see other rain measurements)
** Current wind speed in m/s (hover to see current wind gust speed)